Location: Vancouver
(49.2500°N, 123.1330°W)
Time: 16:30:26
(UTC-07:00)

deb Explorer IX - Visible Passes

Search period start: 25 October 2014 00:00
Search period end: 03 November 2014 23:00
Orbit: 559 x 1207 km, 38.8° (Epoch: 22 October)

Date Brightness Start Highest point End Pass type
(mag) Time Alt. Az. Time Alt. Az. Time Alt. Az.
25 Oct ? 04:20:25 16° SE 04:20:25 16° SE 04:23:07 10° ESE visible
25 Oct ? 06:03:00 15° SW 06:06:58 27° S 06:11:30 10° ESE visible
26 Oct ? 04:16:36 18° SE 04:16:36 18° SE 04:19:19 10° ESE visible
26 Oct ? 05:59:11 18° SW 06:02:39 29° S 06:07:23 10° ESE visible
27 Oct ? 04:12:40 19° SE 04:12:40 19° SE 04:15:19 10° ESE visible
27 Oct ? 05:55:15 21° SW 05:58:15 30° S 06:03:08 10° ESE visible
28 Oct ? 04:08:37 20° SE 04:08:37 20° SE 04:11:08 10° ESE visible
28 Oct ? 05:51:11 24° SW 05:53:46 31° S 05:58:46 10° ESE visible
29 Oct ? 04:04:29 20° SE 04:04:29 20° SE 04:06:48 10° ESE visible
29 Oct ? 05:47:02 26° SW 05:49:11 32° S 05:54:17 10° SE visible
30 Oct ? 04:00:15 20° SE 04:00:15 20° SE 04:02:20 10° ESE visible
30 Oct ? 05:42:48 28° SW 05:44:30 32° S 05:49:41 10° SE visible
31 Oct ? 03:55:56 18° ESE 03:55:56 18° ESE 03:57:45 10° ESE visible
31 Oct ? 05:38:29 29° SSW 05:39:44 31° SSW 05:44:57 10° SE visible
31 Oct ? 07:23:09 10° WSW 07:26:57 17° SSW 07:30:25 10° S visible
01 Nov ? 03:51:34 17° ESE 03:51:34 17° ESE 03:53:02 10° ESE visible
01 Nov ? 05:34:07 29° SSW 05:34:51 30° SSW 05:40:06 10° SE visible
01 Nov ? 07:18:40 10° WSW 07:21:59 15° SSW 07:25:04 10° S visible
02 Nov ? 02:47:09 15° ESE 02:47:09 15° ESE 02:48:13 10° ESE visible
02 Nov ? 04:29:41 29° SSW 04:29:52 29° SSW 04:35:07 10° SE visible
02 Nov ? 06:14:18 10° WSW 06:16:55 13° SW 06:19:23 10° SSW visible
03 Nov ? 02:42:40 13° ESE 02:42:40 13° ESE 02:43:16 10° ESE visible
03 Nov ? 04:25:13 27° SSW 04:25:13 27° SSW 04:30:00 10° SE visible
03 Nov ? 06:10:25 10° SW 06:11:44 11° SW 06:13:00 10° SSW visible
